Regional Weather Roundup
Issued by NWS Columbia, SC

Home | Current Version | Previous Version | Text Only | Print | Product List | Glossary On
Versions: 1 2 3 4 5 6 7 8 9 10 11 12 13 14 15 16 17 18 19 20 21 22 23 24 25 26 27 28 29 30 31 32 33 34 35 36 37 38 39 40 41 42 43 44 45 46 47 48 49 50
000
ASUS42 KCAE 201610
RWRCAE
REGIONAL WEATHER ROUNDUP
NATIONAL WEATHER SERVICE COLUMBIA SC
1100 AM EST MON FEB 20 2017

NOTE: "FAIR" INDICATES FEW OR NO CLOUDS BELOW 12,000 FEET WITH NO
SIGNIFICANT WEATHER AND/OR OBSTRUCTIONS TO VISIBILITY.

NOT ALL STATIONS ARE QUALITY CONTROLLED BY THE NATIONAL
WEATHER SERVICE. USE DATA WITH CAUTION...ESPECIALLY
DEWPOINT OBSERVATIONS.

SCZ001>056-GAZ040-063>065-077-201700-
...UPSTATE SOUTH CAROLINA...

CITY           SKY/WX    TMP DP  RH WIND       PRES   REMARKS
ANDERSON       SUNNY     66  42  41 E6        30.22F
LIBERTY        SUNNY     67  43  42 CALM      30.21F
SPARTANBURG    SUNNY     64  39  39 N3        30.23S
CLEMSON        SUNNY     66  41  40 SE5       30.23F
GREENVILLE     SUNNY     68  42  38 VRB3      30.23F
GREENWOOD      SUNNY     63  42  46 E9        30.24S
GREER          SUNNY     66  42  41 E6        30.22S
ROCK HILL      SUNNY     65  40  39 VRB6      30.23F
CHESTER        SUNNY     64  39  39 NE7       30.24S
LAURENS        SUNNY     63  45  51 E7        30.23S


...CENTRAL SOUTH CAROLINA...

CITY           SKY/WX    TMP DP  RH WIND       PRES   REMARKS
COLUMBIA APT   MOSUNNY   68  44  42 E6        30.22R
COLUMBIA OWENS SUNNY     67  42  40 NE5       30.22F
MCENTIRE ANGB  SUNNY     65  43  43 E9        30.21F
ORANGEBURG     SUNNY     65  44  46 NE9       30.21S
SUMTER SHAW    SUNNY     65  43  44 NE7       30.20S
AIKEN          FAIR      66  41  39 NE9       30.25S
BARNWELL       FAIR      68  46  45 NE9       30.21F
MANNING        FAIR      63  41  45 MISG      30.21F
CAMDEN         FAIR      64  43  45 NE3       30.23S
LANCASTER      SUNNY     64  41  42 NE7       30.23S
WINNSBORO      SUNNY     64  43  45 NE9       30.22F


...EASTERN AND COASTAL SOUTH CAROLINA...

CITY           SKY/WX    TMP DP  RH WIND       PRES   REMARKS
MYRTLE BEACH   SUNNY     66  43  42 E12       30.22R
N MYRTLE BCH   SUNNY     68  45  43 NE7       30.19S
CONWAY         FAIR      68  45  42 E5        30.20F HAZE
MARION         FAIR      64  45  48 E5        30.20F
HARTSVILLE     FAIR      64  41  42 NE7       30.22S
FLORENCE       SUNNY     65  45  48 NE6       30.21S
DARLINGTON     SUNNY     64  45  49 NE6       30.23S
CHARLESTON APT MOSUNNY   69  47  45 VRB5      30.19F
MOUNT PLEASANT FAIR      68  48  49 CALM      30.20F
WALTERBORO     SUNNY     68  45  42 E3        30.21S
BEAUFORT       SUNNY     69  50  50 N3        30.20S


...EASTERN GEORGIA...

CITY           SKY/WX    TMP DP  RH WIND       PRES   REMARKS
AUGUSTA BUSH F SUNNY     71  44  37 E8        30.21S
AUGUSTA DANIEL SUNNY     67  42  40 E9        30.22S
THOMSON        SUNNY     68  49  50 E8        30.25F
WASHINGTON     FAIR      64  48  55 CALM      30.21F
CLAXTON        FAIR      70  53  54 NE6       30.20S
SYLVANIA       SUNNY    N/A N/A N/A E6        30.22R
STATESBORO     SUNNY     70  52  54 E6        30.20S
SAVANNAH       PTSUNNY   72  48  42 NE5       30.20S


...SOUTHERN NORTH CAROLINA...

CITY           SKY/WX    TMP DP  RH WIND       PRES   REMARKS
CHARLOTTE      MOSUNNY   66  37  34 E7        30.24S
MONROE         SUNNY     63  39  41 VRB7      30.23S
WADESBORO      SUNNY     62  42  48 NE5       30.23F
ROCKINGHAM     SUNNY     64  42  44 E6        30.22F
RUTHERFORDTON  SUNNY     66  40  38 S7        30.25S
ASHEVILLE      SUNNY     56  37  49 CALM      30.26S

$$



USA.gov is the U.S. government's official web portal to all federal, state and local government web resources and services.